Find Starlink 32877

NORAD ID: 62960 Int'l Des: 2025-029 Owner: SPXS Country: US Constellation: starlink operational
LEOCIRCULAR

Live Position

Loading 3D Globe...

About Starlink 32877

Description loading...

Upcoming Passes

Passes for default location (London). Set your location on the main map for personalized predictions.

Altitude History

Loading altitude history...

Two-Line Element Set

1 62960U 25029N 26125.77375414 .00015913 00000-0 54819-3 0 9994
2 62960 53.1587 327.5669 0000892 98.4127 261.6975 15.30202665 70038
Epoch: May 5, 2026 • Age: 15 hours

Current Status

Altitude 478.2 km
Velocity 7.63 km/s
Sub-Earth Point 39.94°N, 103.44°E
Launch Date Feb 11, 2025
Age 1.2 years
Type internet

Technical Details

Classification Payload
Mass 730.00 kg
Dry Mass 700.00 kg
Total Mass 730.00 kg
Length 0.30 m
Diameter 4.10 m
Span 29.00 m
Shape Box + pan
Manufacturer SPXS
Bus Type Starlink V2M
Phase Status In Orbit
Owner/State SPXS/US

Most Searched